OISY  Yasouj Airport

Add Bookmark

Iran

Status
Operational
Latitude Longitude
30° 42' 1" N 51° 32' 42" E
30.700500 51.545101
Local (DST + 5) UTC (GMT + 4)
Oct 20, 2014 07:53 Oct 20, 2014 04:23
Sunrise-Sunset Local UTC
Begin Civil Twilight 05:44 02:14
Sunrise 06:08 02:38
Sunset 05:28 13:58
End Civil Twilight 05:52 14:22

Current Weather

METAR Observed VFR
OISY 200300Z 00000KT CAVOK 07/02 Q1023 Mon, Oct 20, 2014 @ 03:00 UTC
(1 Hour, 23 Minutes ago)
Visual Flight Rules
Wind Visibility Clouds Conditions
Calm 10 km or more
  • Clear skies
  • No significant weather
Temperatures Readings Precipitation
Current Temp 7°C (45°F)
Dewpoint 2°C (36°F)
Humidity 71%
Altimeter 30.21"Hg
Sea Level Pressure 1023mb
Field Elevation 5941.6'
None Recorded

Additional weather within a 92.6km radius of OISY

Map ICAO Location
OIAH 79.6km W (240°)

24 Hour Weather History

Loading
-

24 Hour Weather Graphs

Loading
-

CheckWX.com is intended as a tool to help pilots better visualize weather data. It is not intended as a substitute for an official weather briefing obtained from a Flight Service Station. CheckWX.com does not meet the FAA requirements for an official pre-flight weather briefing. Therefore, it's important that pilots still call and obtain an official FSS pre-flight weather briefing.